Date_and_time,latitude,longitude,wind_speed,RelWindDirFrom,WindDirFrom,air_pressure,air_temperature,relative_humidity,Temp,platform_speed_wrt_ground,air_pressure_at_mean_sea_level,platform_orientation
2019-10-10 00:00,50.6304266666667,-96.980765,15.2,23.3,327,989.03,2.6,99,9.63,0.0,1016.63,0.0
2019-10-10 00:10,50.63043,-96.980765,15.2,22.2,325,989.48,2.5,99,9.64,0.0,1017.10,0.0
2019-10-10 00:20,50.63043,-96.9807666666667,16.3,26.4,330,989.70,2.5,99,9.64,0.0,1017.32,0.0
2019-10-10 00:30,50.63043,-96.9807666666667,15.7,23.4,329,990.00,2.5,99,9.62,0.0,1017.64,0.0
2019-10-10 00:40,50.6304183333333,-96.9807616666667,14.6,21.5,326,990.39,2.4,99,9.61,0.0,1018.04,0.0
2019-10-10 00:50,50.63043,-96.98076,14.9,23.0,330,990.44,2.4,99,9.59,0.0,1018.10,0.0
2019-10-10 01:00,50.6304283333333,-96.98076,15.8,20.8,336,990.23,2.5,99,9.58,0.0,1017.89,90.0
2019-10-10 01:10,50.63043,-96.9807633333333,18.5,31.3,343,990.02,2.8,99,9.61,0.0,1017.65,90.0
2019-10-10 01:20,50.6304316666667,-96.9807633333333,22.4,37.4,350,989.74,3.5,99,9.63,0.0,1017.34,90.0
2019-10-10 01:30,50.6304316666667,-96.980765,18.3,26.8,341,990.09,3.2,99,9.62,0.0,1017.71,90.0
2019-10-10 01:40,50.63043,-96.98077,24.0,35.2,351,989.73,3.5,98,9.60,0.0,1017.32,90.0
2019-10-10 01:50,50.6304333333333,-96.9807666666667,29.2,36.0,354,989.70,4.0,92,9.58,0.0,1017.28,90.0
2019-10-10 02:00,50.6304283333333,-96.9807616666667,30.3,38.3,354,989.85,4.0,87,9.54,0.0,1017.43,29.9
2019-10-10 02:10,50.63042,-96.98076,30.4,39.2,358,989.49,4.2,86,9.47,0.0,1017.06,29.9
2019-10-10 02:20,50.6304233333333,-96.9807683333333,29.0,37.4,352,989.92,4.2,83,9.42,0.0,1017.50,29.9
2019-10-10 02:30,50.6304383333333,-96.98077,28.7,37.5,354,990.46,4.2,81,9.40,0.0,1018.06,29.9
2019-10-10 02:40,50.630415,-96.98076,27.7,33.9,351,990.63,4.2,79,9.40,0.0,1018.23,29.9
2019-10-10 02:50,50.6304266666667,-96.9807683333333,29.5,36.7,355,990.51,4.3,77,9.38,0.0,1018.10,29.9
2019-10-10 03:00,50.6304316666667,-96.98079,31.0,38.2,358,990.46,4.4,76,9.35,0.0,1018.02,287.7
2019-10-10 03:10,50.63042,-96.9807616666667,32.2,37.7,2,990.54,4.5,72,9.33,0.0,1018.07,287.7
2019-10-10 03:20,50.630415,-96.9807666666667,31.9,38.6,1,990.74,4.5,69,9.32,0.0,1018.28,287.7
2019-10-10 03:30,50.6304216666667,-96.9807683333333,30.3,36.8,353,990.95,4.4,68,9.31,0.0,1018.50,287.7
2019-10-10 03:40,50.630435,-96.98077,28.8,40.6,353,991.05,4.2,73,9.28,0.0,1018.58,287.7
2019-10-10 03:50,50.6304033333333,-96.9807583333333,21.4,38.3,348,991.35,3.4,78,9.27,0.0,1018.93,287.7
2019-10-10 04:00,50.6304233333333,-96.980755,27.5,35.9,357,991.17,4.1,78,9.27,0.0,1018.70,90.0
2019-10-10 04:10,50.6304316666667,-96.9807766666667,30.3,38.6,358,991.02,4.1,80,9.27,0.0,1018.55,90.0
2019-10-10 04:20,50.6304316666667,-96.980775,27.1,35.9,353,991.56,4.0,82,9.27,0.0,1019.11,90.0
2019-10-10 04:30,50.63042,-96.9807583333333,26.0,35.6,351,991.98,4.1,78,9.27,0.0,1019.54,90.0
2019-10-10 04:40,50.6304283333333,-96.9807616666667,14.3,21.9,323,992.66,3.0,82,9.27,0.0,1020.29,90.0
2019-10-10 04:50,50.6304316666667,-96.9807616666667,13.2,20.8,323,992.98,2.2,88,9.26,0.0,1020.65,90.0
2019-10-10 05:00,50.6304316666667,-96.9807633333333,15.8,22.4,326,992.91,1.7,92,9.25,0.0,1020.60,347.4
2019-10-10 05:10,50.6304533333333,-96.9807183333333,15.9,21.1,333,993.07,1.5,94,9.26,0.0,1020.76,347.4
2019-10-10 05:20,50.6304316666667,-96.9807683333333,17.2,23.0,332,993.03,1.6,93,9.26,0.0,1020.73,347.4
2019-10-10 05:30,50.6304333333333,-96.98077,16.5,24.8,328,993.04,1.7,91,9.25,0.0,1020.74,347.4
2019-10-10 05:40,50.630435,-96.9807483333333,14.7,21.4,335,993.26,1.6,92,9.25,0.0,1021.02,347.4
2019-10-10 05:50,50.630435,-96.980755,14.1,22.4,330,993.45,1.6,95,9.26,0.0,1021.18,347.4
2019-10-10 06:00,50.6304333333333,-96.9807533333333,14.5,20.5,327,993.33,1.5,95,9.26,0.0,1021.06,90.0
2019-10-10 06:10,50.630435,-96.980745,13.6,18.6,330,993.40,1.5,96,9.27,0.0,1021.14,90.0
2019-10-10 06:20,50.6304316666667,-96.9807466666667,13.4,18.5,329,993.33,1.4,97,9.26,0.0,1021.06,90.0
2019-10-10 06:30,50.6304283333333,-96.9807716666667,13.3,18.5,329,993.45,1.5,98,9.26,0.0,1021.24,90.0
2019-10-10 06:40,50.6304316666667,-96.9807533333333,14.3,20.5,326,993.35,1.4,98,9.24,0.0,1021.18,90.0
2019-10-10 06:50,50.6304266666667,-96.980755,14.2,20.6,326,993.22,1.3,99,9.19,0.0,1021.08,90.0
2019-10-10 07:00,50.6304266666667,-96.98075,14.3,20.3,325,993.26,1.5,99,9.17,0.0,1021.12,90.0
2019-10-10 07:10,50.6304283333333,-96.98075,14.1,18.4,328,993.43,1.6,98,9.19,0.0,1021.28,90.0
2019-10-10 07:20,50.6304283333333,-96.9807516666667,14.9,21.2,319,993.51,1.6,97,9.19,0.0,1021.36,90.0
2019-10-10 07:30,50.63043,-96.9807516666667,14.5,21.5,322,993.63,1.6,97,9.17,0.0,1021.49,90.0
2019-10-10 07:40,50.6304283333333,-96.980765,14.9,20.7,325,993.72,1.5,97,9.10,0.0,1021.59,90.0
2019-10-10 07:50,50.6304366666667,-96.9807633333333,14.6,22.1,326,993.61,1.5,97,9.05,0.0,1021.48,90.0
2019-10-10 08:00,50.6304333333333,-96.98076,15.2,23.0,323,993.43,1.6,97,9.04,0.0,1021.29,90.0
2019-10-10 08:10,50.6304316666667,-96.980755,15.8,23.9,327,993.24,1.7,96,9.04,0.0,1021.09,90.0
2019-10-10 08:20,50.6304316666667,-96.9807516666667,13.9,20.4,329,993.50,1.8,97,9.04,0.0,1021.35,90.0
2019-10-10 08:30,50.6304283333333,-96.9807433333333,14.3,21.5,326,993.54,1.8,96,9.03,0.0,1021.40,90.0
2019-10-10 08:40,50.6304283333333,-96.980745,14.0,20.6,327,993.45,1.7,96,9.02,0.0,1021.31,90.0
2019-10-10 08:50,50.6304266666667,-96.98075,14.9,19.4,333,993.19,1.9,96,8.98,0.0,1021.03,90.0
2019-10-10 09:00,50.6304316666667,-96.980755,14.4,22.3,334,993.22,2.0,96,8.96,0.0,1021.05,270.0
2019-10-10 09:10,50.6304266666667,-96.9807616666667,13.8,20.0,336,993.58,2.1,96,8.93,0.0,1021.41,270.0
2019-10-10 09:20,50.630415,-96.98075,14.1,26.7,339,993.54,2.2,96,8.91,0.0,1021.36,270.0
2019-10-10 09:30,50.630415,-96.98073,27.8,34.9,360,992.85,3.4,88,8.90,0.0,1020.60,270.0
2019-10-10 09:40,50.6304166666667,-96.9807316666667,24.3,33.8,355,992.92,3.7,89,8.87,0.0,1020.66,270.0
2019-10-10 09:50,50.6304216666667,-96.980745,29.6,37.7,359,992.63,3.7,85,8.86,0.0,1020.35,270.0
2019-10-10 10:00,50.6304233333333,-96.9807483333333,27.2,32.3,355,993.03,3.7,84,8.84,0.0,1020.77,90.0
2019-10-10 10:10,50.6304383333333,-96.9807933333333,28.8,36.2,358,993.12,3.7,85,8.82,0.0,1020.85,90.0
2019-10-10 10:20,50.6304366666667,-96.9807966666667,27.5,35.0,351,993.39,3.5,85,8.82,0.0,1021.14,90.0
2019-10-10 10:30,50.63043,-96.9807416666667,27.8,35.3,353,993.45,3.3,84,8.81,0.0,1021.21,90.0
2019-10-10 10:40,50.630425,-96.9807666666667,28.7,34.9,357,993.88,3.5,83,8.79,0.0,1021.64,90.0
2019-10-10 10:50,50.63043,-96.98076,28.4,35.5,353,993.63,3.5,81,8.76,0.0,1021.37,90.0
2019-10-10 11:00,50.630435,-96.9807716666667,29.4,36.4,356,993.32,3.4,81,8.75,0.0,1021.06,299.2
2019-10-10 11:10,50.630415,-96.9807716666667,27.9,35.6,357,993.27,3.5,83,8.73,0.0,1020.99,299.2
2019-10-10 11:20,50.63043,-96.9807516666667,31.2,38.3,357,992.97,3.4,82,8.72,0.0,1020.63,299.2
2019-10-10 11:30,50.6304266666667,-96.9807783333333,29.2,36.1,355,993.45,3.4,81,8.69,0.0,1021.11,299.2
2019-10-10 11:40,50.6304233333333,-96.9807766666667,30.2,36.7,356,993.26,3.4,81,8.67,0.0,1020.91,299.2
2019-10-10 11:50,50.63043,-96.9807833333333,28.6,35.6,355,993.42,3.4,81,8.66,0.0,1021.08,299.2
2019-10-10 12:00,50.6304183333333,-96.9807783333333,27.5,33.2,0,993.71,3.6,82,8.66,0.0,1021.37,223.0
2019-10-10 12:10,50.6304166666667,-96.9807816666667,28.4,33.7,2,993.71,3.7,82,8.64,0.0,1021.37,223.0
2019-10-10 12:20,50.630415,-96.9807916666667,30.7,38.3,1,993.06,3.6,82,8.63,0.0,1020.71,223.0
2019-10-10 12:30,50.630425,-96.980765,29.6,35.6,1,993.09,3.5,83,8.62,0.0,1020.74,223.0
2019-10-10 12:40,50.6304216666667,-96.9807583333333,29.9,36.0,1,993.38,3.4,81,8.61,0.0,1021.05,223.0
2019-10-10 12:50,50.63046,-96.980775,29.0,34.7,359,993.07,3.4,83,8.61,0.0,1020.73,223.0
2019-10-10 13:00,50.6304283333333,-96.9807666666667,28.3,35.0,2,993.30,3.5,83,8.59,0.0,1020.95,270.0
2019-10-10 13:10,50.6303916666667,-96.9808166666667,29.3,36.2,3,993.19,3.6,83,8.58,0.0,1020.85,270.0
2019-10-10 13:20,50.63043,-96.9807816666667,28.3,35.1,0,993.04,3.5,85,8.57,0.0,1020.70,270.0
2019-10-10 13:30,50.63043,-96.9807633333333,28.2,34.7,360,993.23,3.5,86,8.56,0.0,1020.89,270.0
2019-10-10 13:40,50.630435,-96.9807683333333,27.8,34.2,0,993.73,3.5,86,8.55,0.0,1021.41,270.0
2019-10-10 13:50,50.6304366666667,-96.980765,27.6,34.5,2,993.86,3.4,88,8.56,0.0,1021.53,270.0
2019-10-10 14:00,50.63043,-96.9807833333333,29.6,35.1,13,993.77,3.1,93,8.55,0.0,1021.45,216.6
2019-10-10 14:10,50.6304416666667,-96.980775,29.3,35.3,13,993.94,2.7,98,8.55,0.0,1021.65,216.6
2019-10-10 14:20,50.6304383333333,-96.9807883333333,30.2,35.1,8,993.70,2.4,99,8.56,0.0,1021.43,216.6
2019-10-10 14:30,50.6304366666667,-96.9807816666667,31.4,36.4,4,993.19,2.1,99,8.55,0.0,1020.91,216.6
2019-10-10 14:40,50.6304233333333,-96.9807516666667,29.7,36.2,2,993.32,2.3,100,8.53,0.0,1021.05,216.6
2019-10-10 14:50,50.630425,-96.9807466666667,30.7,35.9,3,993.41,2.2,100,8.51,0.0,1021.13,216.6
2019-10-10 15:00,50.6304333333333,-96.9807583333333,29.9,35.6,3,993.35,2.3,100,8.51,0.0,1021.06,43.0
2019-10-10 15:10,50.630415,-96.9807633333333,30.9,36.5,2,993.39,2.1,100,8.50,0.0,1021.12,43.0
2019-10-10 15:20,50.6304216666667,-96.9807783333333,30.0,36.1,0,993.14,2.2,100,8.50,0.0,1020.86,43.0
2019-10-10 15:30,50.6304183333333,-96.9807833333333,30.6,37.5,5,993.27,2.3,100,8.49,0.0,1020.99,43.0
2019-10-10 15:40,50.630415,-96.98076,28.3,34.7,0,993.16,2.3,100,8.46,0.0,1020.88,43.0
2019-10-10 15:50,50.630415,-96.9807733333333,27.5,33.6,1,993.71,2.3,100,8.44,0.0,1021.46,43.0
2019-10-10 16:00,50.6304166666667,-96.9807733333333,27.9,34.7,359,993.72,2.3,100,8.43,0.0,1021.49,194.5
2019-10-10 16:10,50.63043,-96.98077,29.1,37.8,360,993.20,2.4,100,8.42,0.0,1020.96,194.5
2019-10-10 16:20,50.6304333333333,-96.9807566666667,29.3,36.1,358,993.17,2.4,100,8.41,0.0,1020.95,194.5
2019-10-10 16:30,50.6304333333333,-96.98077,31.4,37.1,357,992.79,2.2,100,8.39,0.0,1020.56,194.5
2019-10-10 16:40,50.6304316666667,-96.9807683333333,31.9,40.0,353,992.30,1.9,100,8.38,0.0,1020.07,194.5
2019-10-10 16:50,50.630435,-96.98077,31.2,39.9,350,992.00,1.8,100,8.35,0.0,1019.76,194.5
2019-10-10 17:00,50.6304283333333,-96.980765,28.9,38.2,352,992.44,1.9,100,8.32,0.0,1020.23,90.0
2019-10-10 17:10,50.63044,-96.980775,25.6,36.1,350,992.22,2.0,100,8.31,0.0,1019.99,90.0
2019-10-10 17:20,50.6304333333333,-96.980745,24.6,35.9,347,992.35,1.9,100,8.32,0.0,1020.13,90.0
2019-10-10 17:30,50.630395,-96.98075,25.9,38.3,346,992.36,1.9,100,8.32,0.0,1020.14,90.0
2019-10-10 17:40,50.63045,-96.9807616666667,18.9,27.2,337,992.87,1.5,100,8.33,0.0,1020.68,90.0
2019-10-10 17:50,50.630435,-96.9807816666667,21.7,28.5,339,992.71,1.3,100,8.32,0.0,1020.53,90.0
2019-10-10 18:00,50.6304316666667,-96.9807683333333,20.8,29.6,341,993.03,1.6,100,8.32,0.0,1020.83,270.0
2019-10-10 18:10,50.6304366666667,-96.980775,30.0,38.6,353,992.03,2.0,100,8.32,0.0,1019.79,270.0
2019-10-10 18:20,50.6304316666667,-96.980755,28.3,37.2,352,992.27,1.9,100,8.30,0.0,1020.05,270.0
2019-10-10 18:30,50.630435,-96.9807883333333,30.4,37.7,355,992.24,1.8,100,8.28,0.0,1020.04,270.0
2019-10-10 18:40,50.6304366666667,-96.980765,33.5,39.8,356,991.70,1.7,100,8.23,0.0,1019.49,270.0
2019-10-10 18:50,50.63044,-96.9807866666667,31.7,39.2,356,991.62,1.7,100,8.19,0.0,1019.41,270.0
2019-10-10 19:00,50.6304366666667,-96.9807616666667,31.3,41.2,356,991.62,1.9,100,8.15,0.0,1019.39,14.5
2019-10-10 19:10,50.6304333333333,-96.98077,33.7,42.3,359,991.37,1.8,100,8.12,0.0,1019.14,14.5
2019-10-10 19:20,50.630425,-96.9807633333333,29.2,37.1,352,991.57,1.6,100,8.10,0.0,1019.36,14.5
2019-10-10 19:30,50.63042,-96.9807633333333,31.7,41.3,355,991.31,1.7,100,8.08,0.0,1019.10,14.5
2019-10-10 19:40,50.63042,-96.980755,29.0,38.9,355,991.43,1.9,100,8.06,0.0,1019.23,14.5
2019-10-10 19:50,50.63042,-96.9807366666667,32.3,41.3,354,990.93,1.7,100,8.05,0.0,1018.71,14.5
2019-10-10 20:00,50.6304333333333,-96.9807516666667,34.2,43.0,356,990.60,1.7,100,8.04,0.0,1018.35,54.7
2019-10-10 20:10,50.6304283333333,-96.9807533333333,33.7,43.1,358,990.47,1.7,100,8.02,0.0,1018.22,54.7
2019-10-10 20:20,50.6304283333333,-96.9807466666667,35.4,43.1,356,990.21,1.5,100,8.01,0.0,1017.97,54.7
2019-10-10 20:30,50.6304266666667,-96.9807366666667,30.7,36.6,357,990.52,1.5,100,7.98,0.0,1018.29,54.7
2019-10-10 20:40,50.6304183333333,-96.9807683333333,30.8,39.9,358,990.53,1.7,101,7.95,0.0,1018.30,54.7
2019-10-10 20:50,50.630445,-96.9807683333333,28.2,35.6,356,990.76,1.8,101,7.93,0.0,1018.52,54.7
2019-10-10 21:00,50.630435,-96.9807483333333,28.5,36.4,354,990.69,1.7,101,7.92,0.0,1018.45,60.8
2019-10-10 21:10,50.6304266666667,-96.980745,30.6,38.9,356,990.49,1.9,101,7.91,0.0,1018.24,60.8
2019-10-10 21:20,50.6304233333333,-96.9807566666667,31.9,39.5,355,990.60,1.8,101,7.91,0.0,1018.36,60.8
2019-10-10 21:30,50.63043,-96.9807616666667,27.8,37.6,351,990.69,2.1,101,7.90,0.0,1018.43,60.8
2019-10-10 21:40,50.630425,-96.9807666666667,31.4,41.9,354,990.58,2.2,101,7.88,0.0,1018.32,60.8
2019-10-10 21:50,50.6304266666667,-96.9807633333333,19.0,29.7,342,991.32,1.8,101,7.85,0.0,1019.10,60.8
2019-10-10 22:00,50.63042,-96.980735,27.0,38.7,348,990.49,2.0,101,7.85,0.0,1018.24,138.8
2019-10-10 22:10,50.6304316666667,-96.9807566666667,19.7,34.1,341,990.92,1.6,100,7.84,0.0,1018.71,138.8
2019-10-10 22:20,50.63043,-96.9807566666667,26.4,40.8,349,990.41,1.8,100,7.82,0.0,1018.18,138.8
2019-10-10 22:30,50.6304433333333,-96.9807383333333,16.5,25.4,334,990.83,1.1,100,7.82,0.0,1018.63,138.8
2019-10-10 22:40,50.6304333333333,-96.9807783333333,16.0,25.2,337,990.64,0.9,100,7.82,0.0,1018.45,138.8
2019-10-10 22:50,50.630435,-96.9807566666667,24.5,38.2,346,989.96,1.5,100,7.81,0.0,1017.71,138.8
2019-10-10 23:00,50.6304233333333,-96.9807716666667,23.2,32.9,342,990.07,1.6,100,7.79,0.0,1017.82,248.5
2019-10-10 23:10,50.6304166666667,-96.9807533333333,24.6,35.2,346,990.04,1.6,101,7.75,0.0,1017.78,248.5
2019-10-10 23:20,50.630435,-96.9807483333333,25.0,40.9,345,990.02,1.6,101,7.72,0.0,1017.75,248.5
2019-10-10 23:30,50.6304233333333,-96.9807333333333,23.2,36.9,343,990.07,1.7,101,7.73,0.0,1017.80,248.5
2019-10-10 23:40,50.6304183333333,-96.9807533333333,18.9,27.4,333,990.22,1.0,101,7.72,0.0,1018.01,248.5
